Rochester/St. Mary\'s Hospita, MN

3:04 PM CST on December 09, 2019 (GMT -0600)
Rochester/St. Mary\'s Hospita

Weather History for K9MN - October, 2019

Change the Weather History Date:

Friday, October 25, 2019

  Actual Average (WUND) Record (WUND)
Temperature  
Mean Temperature 40 °F -  
Max Temperature 52 °F - - (-1)
Min Temperature 28 °F - - (-1)
Degree Days  
Heating Degree Days 26    
Moisture  
Dew Point 27 °F    
Average Humidity 64    
Maximum Humidity 90    
Minimum Humidity 40    
Precipitation  
Precipitation 0.00 in - - ()
Sea Level Pressure  
Sea Level Pressure 30.25 in    
Wind  
Wind Speed 4 mph (South)    
Max Wind Speed 14 mph    
Max Gust Speed 24 mph    
Visibility 10 miles    
Events      
Averages and records for this station are not official NWS values.
T = Trace of Precipitation, MM = Missing Value Source: NWS Daily Summary

Daily Weather History Graph

Daily Weather History Graph

Search for Another Location

Airport or City:

Astronomy

Oct. 25, 2019 Rise Set
Actual Time 7:36 AM CDT 6:10 PM CDT
Civil Twilight 7:07 AM CDT 6:39 PM CDT
Nautical Twilight 6:33 AM CDT 7:13 PM CDT
Astronomical Twilight 6:00 AM CDT 7:47 PM CDT
Moon 4:10 AM CDT (10/25) 5:20 PM CDT (10/25)
Length of Visible Light 11h 32m
Length of Day
10h 33m
Waning Crescent, 9% of the Moon is Illuminated
Oct 25
Waning Crescent
Oct 27
New
Nov 4
First Quarter
Nov 12
Full
Nov 19
Last Quarter

Hourly Weather History & Observations

Time (CDT) Temp. Windchill Dew Point Humidity Pressure Visibility Wind Dir Wind Speed Gust Speed Precip Events Conditions
12:15 AM 31.6 °F - 26.8 °F 82% 30.36 in 10.0 mi Calm Calm - N/A   Clear
12:16 AM 31.6 °F - 26.6 °F 82% 30.36 in 10.0 mi Calm Calm - N/A   Clear
12:35 AM 31.8 °F - 26.6 °F 81% 30.36 in 10.0 mi Calm Calm - N/A   Clear
12:36 AM 32.0 °F - 26.8 °F 81% 30.36 in 10.0 mi Calm Calm - N/A   Clear
12:55 AM 31.6 °F - 27.0 °F 83% 30.36 in 10.0 mi Calm Calm - N/A   Clear
1:15 AM 31.1 °F - 26.4 °F 83% 30.36 in 10.0 mi Calm Calm - N/A   Clear
1:35 AM 31.3 °F - 26.4 °F 82% 30.35 in 10.0 mi Calm Calm - N/A   Clear
1:36 AM 31.3 °F - 26.6 °F 83% 30.35 in 10.0 mi Calm Calm - N/A   Clear
1:55 AM 30.0 °F - 25.9 °F 85% 30.35 in 10.0 mi Calm Calm - N/A   Clear
1:56 AM 29.8 °F - 26.1 °F 86% 30.35 in 10.0 mi Calm Calm - N/A   Clear
2:15 AM 29.8 °F - 26.4 °F 87% 30.35 in 10.0 mi Calm Calm - N/A   Clear
2:35 AM 29.7 °F - 26.2 °F 87% 30.34 in 10.0 mi Calm Calm - N/A   Clear
2:55 AM 29.3 °F - 25.9 °F 87% 30.34 in 10.0 mi Calm Calm - N/A   Clear
2:56 AM 29.3 °F - 25.9 °F 87% 30.34 in 10.0 mi Calm Calm - N/A   Clear
3:15 AM 28.8 °F - 25.7 °F 88% 30.33 in 10.0 mi Calm Calm - N/A   Clear
3:16 AM 28.6 °F 24.8 °F 25.7 °F 89% 30.33 in 10.0 mi SE 3.5 mph - N/A   Clear
3:35 AM 28.9 °F - 26.1 °F 89% 30.33 in 10.0 mi Calm Calm - N/A   Clear
3:55 AM 29.3 °F - 25.7 °F 86% 30.33 in 10.0 mi Calm Calm - N/A   Clear
4:15 AM 28.4 °F - 25.5 °F 89% 30.33 in 10.0 mi Calm Calm - N/A   Clear
4:16 AM 28.4 °F - 25.5 °F 89% 30.33 in 10.0 mi Calm Calm - N/A   Clear
4:55 AM 28.2 °F 24.4 °F 25.5 °F 90% 30.33 in 10.0 mi SSE 3.5 mph - N/A   Clear
5:15 AM 28.9 °F 25.2 °F 25.5 °F 87% 30.33 in 10.0 mi South 3.5 mph - N/A   Clear
5:35 AM 29.3 °F 25.6 °F 24.8 °F 83% 30.33 in 10.0 mi South 3.5 mph - N/A   Clear
5:36 AM 29.3 °F 25.6 °F 24.8 °F 83% 30.33 in 10.0 mi South 3.5 mph - N/A   Clear
5:55 AM 29.5 °F 24.5 °F 24.8 °F 83% 30.34 in 10.0 mi South 4.6 mph - N/A   Clear
5:56 AM 29.7 °F 24.7 °F 24.8 °F 82% 30.34 in 10.0 mi SSW 4.6 mph - N/A   Clear
6:15 AM 30.0 °F 26.5 °F 24.6 °F 80% 30.34 in 10.0 mi South 3.5 mph - N/A   Clear
6:16 AM 30.0 °F 26.5 °F 24.6 °F 80% 30.34 in 10.0 mi South 3.5 mph - N/A   Clear
6:35 AM 30.0 °F 26.5 °F 24.4 °F 80% 30.34 in 10.0 mi South 3.5 mph - N/A   Clear
6:55 AM 29.7 °F 24.7 °F 24.3 °F 80% 30.34 in 10.0 mi South 4.6 mph - N/A   Clear
7:15 AM 29.3 °F 24.3 °F 24.1 °F 81% 30.34 in 10.0 mi SSE 4.6 mph - N/A   Clear
7:16 AM 29.3 °F 23.2 °F 24.3 °F 81% 30.33 in 10.0 mi SSE 5.8 mph - N/A   Clear
7:35 AM 30.0 °F 26.5 °F 24.6 °F 80% 30.34 in 10.0 mi South 3.5 mph - N/A   Clear
7:55 AM 31.1 °F - 25.3 °F 79% 30.34 in 10.0 mi Calm Calm - N/A   Clear
8:15 AM 31.3 °F - 25.5 °F 79% 30.34 in 10.0 mi Calm Calm - N/A   Clear
8:35 AM 31.1 °F 27.7 °F 24.6 °F 77% 30.34 in 10.0 mi South 3.5 mph - N/A   Clear
8:36 AM 31.1 °F 27.7 °F 24.8 °F 77% 30.34 in 10.0 mi South 3.5 mph - N/A   Clear
8:55 AM 32.7 °F 27.3 °F 25.5 °F 75% 30.33 in 10.0 mi South 5.8 mph - N/A   Clear
8:56 AM 32.9 °F 27.5 °F 25.3 °F 74% 30.33 in 10.0 mi South 5.8 mph - N/A   Clear
9:15 AM 33.8 °F 27.7 °F 25.9 °F 73% 30.32 in 10.0 mi South 6.9 mph - N/A   Clear
9:55 AM 37.9 °F 34.4 °F 27.3 °F 66% 30.31 in 10.0 mi SW 4.6 mph - N/A   Clear
9:56 AM 38.1 °F 33.7 °F 27.3 °F 65% 30.31 in 10.0 mi South 5.8 mph - N/A   Clear
10:15 AM 39.2 °F 35.0 °F 27.3 °F 62% 30.31 in 10.0 mi SW 5.8 mph - N/A   Clear
10:16 AM 39.2 °F 34.2 °F 27.3 °F 62% 30.31 in 10.0 mi SSW 6.9 mph - N/A   Clear
10:35 AM 40.8 °F 34.5 °F 28.0 °F 60% 30.31 in 10.0 mi SSW 10.4 mph - N/A   Clear
10:55 AM 42.1 °F 34.9 °F 27.7 °F 57% 30.30 in 10.0 mi SSW 13.8 mph - N/A   Clear
11:15 AM 43.3 °F 39.2 °F 28.0 °F 55% 30.30 in 10.0 mi WSW 6.9 mph - N/A   Clear
11:35 AM 44.6 °F 38.4 °F 27.0 °F 50% 30.30 in 10.0 mi SSW 12.7 mph 16.1 mph N/A   Clear
11:36 AM 44.6 °F 38.1 °F 26.8 °F 50% 30.30 in 10.0 mi SSW 13.8 mph - N/A   Clear
11:55 AM 45.1 °F 39.5 °F 25.9 °F 47% 30.29 in 10.0 mi SW 11.5 mph 18.4 mph N/A   Clear
12:15 PM 47.1 °F - 27.3 °F 46% 30.28 in 10.0 mi SW 6.9 mph 16.1 mph N/A   Clear
12:35 PM 48.0 °F - 26.8 °F 44% 30.28 in 10.0 mi SSW 9.2 mph - N/A   Clear
12:36 PM 48.0 °F - 26.6 °F 43% 30.27 in 10.0 mi SSW 11.5 mph 16.1 mph N/A   Clear
12:55 PM 47.5 °F - 26.4 °F 44% 30.26 in 10.0 mi SSW 11.5 mph 18.4 mph N/A   Clear
12:56 PM 47.7 °F - 26.4 °F 44% 30.26 in 10.0 mi WSW 9.2 mph 18.4 mph N/A   Clear
1:15 PM 48.2 °F - 27.1 °F 44% 30.25 in 10.0 mi SW 10.4 mph 21.9 mph N/A   Clear
1:36 PM 49.1 °F - 27.5 °F 43% 30.23 in 10.0 mi South 11.5 mph 17.3 mph N/A   Clear
1:55 PM 48.6 °F - 27.5 °F 44% 30.22 in 10.0 mi South 9.2 mph 17.3 mph N/A   Clear
1:56 PM 48.7 °F - 27.5 °F 44% 30.22 in 10.0 mi South 10.4 mph 17.3 mph N/A   Clear
2:15 PM 49.5 °F - 28.0 °F 44% 30.21 in 10.0 mi SW 5.8 mph 18.4 mph N/A   Clear
2:35 PM 49.5 °F - 27.9 °F 43% 30.20 in 10.0 mi SSW 11.5 mph 20.7 mph N/A   Clear
2:55 PM 51.1 °F - 28.4 °F 42% 30.19 in 10.0 mi SSW 10.4 mph - N/A   Clear
2:56 PM 51.1 °F - 28.4 °F 42% 30.19 in 10.0 mi SSW 9.2 mph - N/A   Clear
3:15 PM 51.8 °F - 28.4 °F 41% 30.17 in 10.0 mi South 12.7 mph 16.1 mph N/A   Clear
3:35 PM 51.1 °F - 28.0 °F 41% 30.17 in 10.0 mi SSW 5.8 mph 17.3 mph N/A   Clear
3:55 PM 51.1 °F - 28.0 °F 41% 30.16 in 10.0 mi South 12.7 mph 18.4 mph N/A   Clear
3:56 PM 51.1 °F - 28.2 °F 41% 30.16 in 10.0 mi South 13.8 mph 18.4 mph N/A   Clear
4:15 PM 51.3 °F - 28.0 °F 41% 30.16 in 10.0 mi South 10.4 mph 18.4 mph N/A   Clear
4:16 PM 51.3 °F - 28.0 °F 41% 30.16 in 10.0 mi SSW 13.8 mph 18.4 mph N/A   Clear
4:35 PM 51.8 °F - 28.0 °F 40% 30.14 in 10.0 mi SW 13.8 mph 19.6 mph N/A   Clear
4:55 PM 50.9 °F - 27.9 °F 41% 30.14 in 10.0 mi South 11.5 mph 17.3 mph N/A   Clear
5:15 PM 50.9 °F - 27.9 °F 41% 30.14 in 10.0 mi South 12.7 mph 19.6 mph N/A   Clear
5:16 PM 50.9 °F - 27.7 °F 41% 30.14 in 10.0 mi South 12.7 mph 19.6 mph N/A   Clear
5:35 PM 50.2 °F - 28.4 °F 43% 30.13 in 10.0 mi South 10.4 mph 19.6 mph N/A   Clear
5:36 PM 50.2 °F - 28.4 °F 43% 30.13 in 10.0 mi South 11.5 mph - N/A   Clear
5:55 PM 49.5 °F - 28.4 °F 44% 30.13 in 10.0 mi South 10.4 mph - N/A   Clear
6:15 PM 48.6 °F - 28.6 °F 46% 30.13 in 10.0 mi South 6.9 mph - N/A   Clear
6:35 PM 47.7 °F - 29.1 °F 49% 30.14 in 10.0 mi South 6.9 mph - N/A   Clear
6:36 PM 47.7 °F - 29.1 °F 49% 30.14 in 10.0 mi South 9.2 mph - N/A   Clear
6:55 PM 46.9 °F - 29.3 °F 50% 30.13 in 10.0 mi South 8.1 mph - N/A   Clear
7:15 PM 46.0 °F 40.2 °F 29.3 °F 52% 30.14 in 10.0 mi South 12.7 mph 18.4 mph N/A   Clear
7:35 PM 45.7 °F 40.2 °F 29.3 °F 53% 30.14 in 10.0 mi South 11.5 mph 17.3 mph N/A   Clear
7:36 PM 45.7 °F 40.6 °F 29.3 °F 53% 30.14 in 10.0 mi South 10.4 mph 17.3 mph N/A   Clear
7:55 PM 44.8 °F 39.9 °F 29.7 °F 55% 30.13 in 10.0 mi South 9.2 mph - N/A   Clear
7:56 PM 44.8 °F 39.4 °F 29.7 °F 55% 30.13 in 10.0 mi South 10.4 mph - N/A   Clear
8:15 PM 43.9 °F 39.3 °F 29.7 °F 57% 30.13 in 10.0 mi South 8.1 mph - N/A   Clear
8:35 PM 43.7 °F 37.7 °F 29.5 °F 57% 30.13 in 10.0 mi South 11.5 mph - N/A   Clear
8:56 PM 43.7 °F 38.1 °F 29.7 °F 58% 30.13 in 10.0 mi South 10.4 mph 24.2 mph N/A   Clear
9:15 PM 43.0 °F 36.8 °F 29.5 °F 59% 30.13 in 10.0 mi South 11.5 mph 17.3 mph N/A   Clear
9:16 PM 43.0 °F 37.2 °F 29.3 °F 59% 30.13 in 10.0 mi South 10.4 mph 17.3 mph N/A   Clear
9:35 PM 42.8 °F 37.5 °F 29.5 °F 59% 30.13 in 7.0 mi South 9.2 mph - N/A   Clear
9:55 PM 42.8 °F 37.5 °F 29.3 °F 59% 30.13 in 10.0 mi South 9.2 mph 18.4 mph N/A   Clear
9:56 PM 42.8 °F 37.5 °F 29.3 °F 59% 30.13 in 10.0 mi South 9.2 mph 18.4 mph N/A   Clear
10:15 PM 42.6 °F 37.2 °F 29.3 °F 59% 30.13 in 10.0 mi South 9.2 mph 16.1 mph N/A   Clear
10:35 PM 42.1 °F 36.1 °F 29.1 °F 60% 30.12 in 10.0 mi South 10.4 mph - N/A   Clear
10:55 PM 41.9 °F 36.9 °F 29.1 °F 61% 30.12 in 10.0 mi South 8.1 mph - N/A   Clear
11:16 PM 41.4 °F 37.6 °F 29.1 °F 62% 30.11 in 10.0 mi South 5.8 mph - N/A   Clear
11:55 PM 40.1 °F 36.1 °F 28.9 °F 64% 30.09 in 10.0 mi SSE 5.8 mph - N/A   Clear